This is the latest recevied weather packets stored in our database for station/object K1RFS. If no packets are shown the sender has not sent any weather packets the latest 10 day(s).
| Time | Temp. | Humidity | Pressure | Rain* | Wind** | Luminosity | Snow |
|---|---|---|---|---|---|---|---|
| 1778102298 | 15.56° C | 25% | 1005.5 hPa | 0 mm | - | 604 W/m² | - |
| 1778101995 | 15.56° C | 25% | 1005.5 hPa | 0 mm | - | 613 W/m² | - |
| 1778101693 | 15.56° C | 26% | 1005.4 hPa | 0 mm | - | 620 W/m² | - |
| 1778101389 | 15° C | 25% | 1005.6 hPa | 0 mm | - | 625 W/m² | - |
| 1778101086 | 15.56° C | 25% | 1005.4 hPa | 0 mm | - | 631 W/m² | - |
| 1778100782 | 15.56° C | 26% | 1005.5 hPa | 0 mm | - | 637 W/m² | - |
| 1778100478 | 15.56° C | 26% | 1005.6 hPa | 0 mm | - | 642 W/m² | - |
| 1778100177 | 15° C | 26% | 1005.3 hPa | 0 mm | - | 647 W/m² | - |
| 1778099874 | 15.56° C | 26% | 1005.5 hPa | 0 mm | - | 654 W/m² | - |
| 1778099571 | 15° C | 25% | 1005.4 hPa | 0 mm | - | 659 W/m² | - |
| 1778099268 | 14.44° C | 27% | 1005.5 hPa | 0 mm | - | 662 W/m² | - |
| 1778098965 | 15.56° C | 25% | 1005.4 hPa | 0 mm | - | 666 W/m² | - |
| 1778098661 | 15.56° C | 26% | 1005.2 hPa | 0 mm | - | 666 W/m² | - |
| 1778098358 | 15° C | 27% | 1005.3 hPa | 0 mm | - | 671 W/m² | - |
| 1778098055 | 15° C | 27% | 1005.3 hPa | 0 mm | - | 673 W/m² | - |
| 1778097752 | 14.44° C | 26% | 1005.4 hPa | 0 mm | - | 678 W/m² | - |
| 1778097448 | 15° C | 26% | 1005.4 hPa | 0 mm | - | 680 W/m² | - |
| 1778097145 | 14.44° C | 27% | 1005.4 hPa | 0 mm | - | 681 W/m² | - |
| 1778096842 | 14.44° C | 28% | 1005.4 hPa | 0 mm | - | 684 W/m² | - |
| 1778096538 | 15° C | 25% | 1005.2 hPa | 0 mm | - | 686 W/m² | - |
| 1778096236 | 13.89° C | 28% | 1005.2 hPa | 0 mm | - | 688 W/m² | - |
| 1778095933 | 15° C | 27% | 1005.4 hPa | 0 mm | - | 688 W/m² | - |
| 1778095629 | 13.89° C | 27% | 1005.2 hPa | 0 mm | - | 689 W/m² | - |
| 1778095326 | 13.89° C | 28% | 1005.3 hPa | 0 mm | - | 689 W/m² | - |
| 1778095017 | 13.33° C | 26% | 1005.3 hPa | 0 mm | - | 690 W/m² | - |
* Rain latest hour (hover to see other rain measurements)
** Current wind speed in m/s (hover to see current wind gust speed)